Вернуться в каталог

GOES 4

АктивенПогодаGEO
NORAD 11964·PAYLOAD·🇺🇸 United States

Запущен Sep 9, 1980 с Cape Canaveral Space Force Station

Loading…

TLE

СвежийSource: Space-Track

Эпоха: Sep 14, 2026, 01:32 UTC

1 11964U 80074A   26257.06447670 -.00000217  00000-0  00000-0 0  9997
2 11964   7.7968 302.3834 0031018 111.8584 263.5873  0.99230602128325

Отслеживайте GOES 4 в реальном времени с AllMySat

Download on the App Store